Tracking 29892 objects as of 21-Nov-2024
HD Live streaming from Space Station
objects crossing your sky now

STARLINK-31604

Track STARLINK-31604 now!
10-day predictions
STARLINK-31604 is classified as:


NORAD ID: 59214
Int'l Code: 2024-046P
Perigee: 481.4 km
Apogee: 483.3 km
Inclination: 53.2 °
Period: 94.1 minutes
Semi major axis: 6853 km
RCS: Unknown
Launch date: March 11, 2024
Source: United States (US)
Launch site: AIR FORCE WESTERN TEST RANGE (AFWTR)
Your satellite tracking list
Your tracking list is empty




NASA's NSSDC Master Catalog

Two Line Element Set (TLE):
1 59214U 24046P   24325.06907242  .00000858  00000-0  41092-4 0  9994
2 59214  53.1582 199.8561 0001429  79.6188 280.4973 15.30200867 40370
Source of the keplerian elements: AFSPC